Time,TemperatureF,DewpointF,PressureIn,WindDirection,WindDirectionDegrees,WindSpeedMPH,WindSpeedGustMPH,Humidity,HourlyPrecipIn,Conditions,Clouds,dailyrainin,SoftwareType,DateUTC
2013-03-22 00:00:00,26.3,10.1,29.86,NW,315,2.7,2.9,50,0.00,,,0.00,WUHU216HW,2013-03-22 04:00:00,
2013-03-22 00:05:00,26.5,10.3,29.86,WNW,293,1.6,2.9,50,0.00,,,0.00,WUHU216HW,2013-03-22 04:05:00,
2013-03-22 00:10:00,26.6,10.0,29.86,WNW,293,2.5,2.9,49,0.00,,,0.00,WUHU216HW,2013-03-22 04:10:00,
2013-03-22 00:15:00,26.8,10.2,29.85,NW,315,1.8,3.4,49,0.00,,,0.00,WUHU216HW,2013-03-22 04:15:00,
2013-03-22 00:20:00,27.0,9.8,29.85,NW,315,3.1,3.4,48,0.00,,,0.00,WUHU216HW,2013-03-22 04:20:00,
2013-03-22 00:25:00,27.0,9.8,29.85,WNW,293,2.5,3.6,48,0.00,,,0.00,WUHU216HW,2013-03-22 04:25:00,
2013-03-22 00:30:00,27.0,9.8,29.85,NW,315,2.5,3.6,48,0.00,,,0.00,WUHU216HW,2013-03-22 04:30:00,
2013-03-22 00:35:00,27.0,9.8,29.85,WNW,293,3.1,4.3,48,0.00,,,0.00,WUHU216HW,2013-03-22 04:35:00,
2013-03-22 00:40:00,27.0,9.8,29.85,NW,315,2.0,4.3,48,0.00,,,0.00,WUHU216HW,2013-03-22 04:40:00,
2013-03-22 00:45:00,27.2,10.0,29.86,SW,225,2.7,4.7,48,0.00,,,0.00,WUHU216HW,2013-03-22 04:45:00,
2013-03-22 00:50:00,27.0,10.4,29.85,NNW,338,1.8,4.7,49,0.00,,,0.00,WUHU216HW,2013-03-22 04:50:00,
2013-03-22 00:55:00,27.0,10.4,29.85,WNW,293,3.4,3.6,49,0.00,,,0.00,WUHU216HW,2013-03-22 04:55:00,
2013-03-22 01:00:00,27.2,11.0,29.85,West,270,1.6,3.4,50,0.00,,,0.00,WUHU216HW,2013-03-22 05:00:00,
2013-03-22 01:05:00,27.0,10.4,29.85,WNW,293,2.5,3.1,49,0.00,,,0.00,WUHU216HW,2013-03-22 05:05:00,
2013-03-22 01:06:00,27.0,10.8,29.85,West,270,3.8,3.8,50,0.00,,,0.00,WUHU216HW,2013-03-22 05:06:00,
2013-03-22 01:10:00,27.0,10.8,29.85,West,270,3.8,3.8,50,0.00,,,0.00,WUHU216HW,2013-03-22 05:10:00,
2013-03-22 01:15:00,27.0,10.8,29.85,West,270,3.8,3.8,50,0.00,,,0.00,WUHU216HW,2013-03-22 05:15:00,
2013-03-22 02:00:00,26.6,11.7,29.85,WNW,293,2.7,2.7,53,0.00,,,0.00,WUHU216HW,2013-03-22 06:00:00,
2013-03-22 02:05:00,26.6,11.7,29.85,WNW,293,2.7,2.7,53,0.00,,,0.00,WUHU216HW,2013-03-22 06:05:00,
2013-03-22 03:00:00,27.0,12.4,29.85,WNW,293,2.2,2.2,54,0.00,,,0.00,WUHU216HW,2013-03-22 07:00:00,
2013-03-22 03:05:00,27.0,12.4,29.85,WNW,293,2.2,2.2,54,0.00,,,0.00,WUHU216HW,2013-03-22 07:05:00,
2013-03-22 04:00:00,27.0,12.1,29.85,WNW,293,1.6,1.6,53,0.00,,,0.00,WUHU216HW,2013-03-22 08:00:00,
2013-03-22 04:05:00,27.0,12.1,29.85,WNW,293,1.6,1.6,53,0.00,,,0.00,WUHU216HW,2013-03-22 08:05:00,
2013-03-22 05:00:00,26.3,12.6,29.85,West,270,0.9,0.9,56,0.00,,,0.00,WUHU216HW,2013-03-22 09:00:00,
2013-03-22 05:05:00,26.3,12.6,29.85,West,270,0.9,0.9,56,0.00,,,0.00,WUHU216HW,2013-03-22 09:05:00,
2013-03-22 06:00:00,25.6,12.3,29.87,SSW,203,0.2,0.2,57,0.00,,,0.00,WUHU216HW,2013-03-22 10:00:00,
2013-03-22 06:05:00,25.6,12.3,29.87,SSW,203,0.2,0.2,57,0.00,,,0.00,WUHU216HW,2013-03-22 10:05:00,
2013-03-22 07:00:00,26.3,12.6,29.87,West,270,0.7,0.7,56,0.00,,,0.00,WUHU216HW,2013-03-22 11:00:00,
2013-03-22 07:05:00,26.5,13.1,29.88,West,270,1.3,4.7,57,0.00,,,0.00,WUHU216HW,2013-03-22 11:05:00,
2013-03-22 07:10:00,26.6,13.3,29.88,NW,315,0.7,4.7,57,0.00,,,0.00,WUHU216HW,2013-03-22 11:10:00,
2013-03-22 07:15:00,26.6,13.0,29.88,WNW,293,2.7,2.7,56,0.00,,,0.00,WUHU216HW,2013-03-22 11:15:00,
2013-03-22 07:20:00,26.6,13.3,29.88,NW,315,1.1,2.7,57,0.00,,,0.00,WUHU216HW,2013-03-22 11:20:00,
2013-03-22 07:25:00,26.6,13.3,29.88,WNW,293,0.7,2.0,57,0.00,,,0.00,WUHU216HW,2013-03-22 11:25:00,
2013-03-22 07:30:00,26.6,13.0,29.89,NW,315,1.6,2.5,56,0.00,,,0.00,WUHU216HW,2013-03-22 11:30:00,
2013-03-22 07:35:00,27.0,13.3,29.89,West,270,0.9,2.5,56,0.00,,,0.00,WUHU216HW,2013-03-22 11:35:00,
2013-03-22 07:40:00,27.0,13.3,29.89,WNW,293,0.4,1.8,56,0.00,,,0.00,WUHU216HW,2013-03-22 11:40:00,
2013-03-22 07:45:00,27.0,13.7,29.89,WNW,293,1.3,3.6,57,0.00,,,0.00,WUHU216HW,2013-03-22 11:45:00,
2013-03-22 07:50:00,27.4,13.7,29.89,NW,315,2.0,3.6,56,0.00,,,0.00,WUHU216HW,2013-03-22 11:50:00,
2013-03-22 07:55:00,27.7,13.1,29.89,North,0,1.1,2.5,54,0.00,,,0.00,WUHU216HW,2013-03-22 11:55:00,
2013-03-22 08:00:00,27.9,13.8,29.89,WNW,293,1.6,2.5,55,0.00,,,0.00,WUHU216HW,2013-03-22 12:00:00,
2013-03-22 08:05:00,28.1,14.0,29.89,NW,315,3.6,3.6,55,0.00,,,0.00,WUHU216HW,2013-03-22 12:05:00,
2013-03-22 08:10:00,28.4,13.9,29.89,NW,315,4.3,4.3,54,0.00,,,0.00,WUHU216HW,2013-03-22 12:10:00,
2013-03-22 08:15:00,29.0,14.0,29.89,West,270,4.3,4.3,53,0.00,,,0.00,WUHU216HW,2013-03-22 12:15:00,
2013-03-22 08:18:00,29.2,14.1,29.89,NW,315,1.1,1.1,53,0.00,,,0.00,WUHU216HW,2013-03-22 12:18:00,
2013-03-22 08:20:00,29.2,14.1,29.89,NW,315,1.1,4.3,53,0.00,,,0.00,WUHU216HW,2013-03-22 12:20:00,
2013-03-22 08:25:00,29.2,14.1,29.89,NW,315,1.1,4.0,53,0.00,,,0.00,WUHU216HW,2013-03-22 12:25:00,
2013-03-22 09:00:00,31.1,14.1,29.90,NW,315,3.1,3.1,49,0.00,,,0.00,WUHU216HW,2013-03-22 13:00:00,
2013-03-22 09:05:00,31.3,14.3,29.89,WNW,293,5.1,6.3,49,0.00,,,0.00,WUHU216HW,2013-03-22 13:05:00,
2013-03-22 09:10:00,31.7,14.1,29.89,NW,315,3.4,6.3,48,0.00,,,0.00,WUHU216HW,2013-03-22 13:10:00,
2013-03-22 09:15:00,32.0,14.9,29.90,NNW,338,8.5,8.5,49,0.00,,,0.00,WUHU216HW,2013-03-22 13:15:00,
2013-03-22 09:20:00,32.0,14.5,29.90,WNW,293,5.4,8.5,48,0.00,,,0.00,WUHU216HW,2013-03-22 13:20:00,
2013-03-22 09:25:00,32.2,14.7,29.90,NW,315,5.4,6.9,48,0.00,,,0.00,WUHU216HW,2013-03-22 13:25:00,
2013-03-22 09:30:00,32.6,14.5,29.90,NW,315,5.1,6.9,47,0.00,,,0.00,WUHU216HW,2013-03-22 13:30:00,
2013-03-22 09:35:00,32.9,14.8,29.90,WNW,293,4.3,6.9,47,0.00,,,0.00,WUHU216HW,2013-03-22 13:35:00,
2013-03-22 09:40:00,32.9,15.3,29.89,NW,315,5.8,7.6,48,0.00,,,0.00,WUHU216HW,2013-03-22 13:40:00,
2013-03-22 09:45:00,33.3,15.1,29.90,WNW,293,4.0,7.6,47,0.00,,,0.00,WUHU216HW,2013-03-22 13:45:00,
2013-03-22 09:50:00,33.3,14.6,29.90,NNW,338,4.7,6.9,46,0.00,,,0.00,WUHU216HW,2013-03-22 13:50:00,
2013-03-22 09:55:00,33.5,15.3,29.90,NW,315,5.4,9.2,47,0.00,,,0.00,WUHU216HW,2013-03-22 13:55:00,
2013-03-22 10:00:00,34.0,14.8,29.90,NW,315,4.9,8.3,45,0.00,,,0.00,WUHU216HW,2013-03-22 14:00:00,
2013-03-22 10:05:00,34.2,15.0,29.90,West,270,5.4,8.3,45,0.00,,,0.00,WUHU216HW,2013-03-22 14:05:00,
2013-03-22 10:10:00,34.2,15.0,29.90,WSW,248,4.9,5.8,45,0.00,,,0.00,WUHU216HW,2013-03-22 14:10:00,
2013-03-22 10:15:00,34.4,15.1,29.90,NNW,338,4.3,5.4,45,0.00,,,0.00,WUHU216HW,2013-03-22 14:15:00,
2013-03-22 10:20:00,34.4,15.6,29.89,WNW,293,5.1,5.4,46,0.00,,,0.00,WUHU216HW,2013-03-22 14:20:00,
2013-03-22 10:25:00,34.9,15.6,29.89,NNW,338,2.5,5.1,45,0.00,,,0.00,WUHU216HW,2013-03-22 14:25:00,
2013-03-22 10:30:00,34.7,15.0,29.90,NW,315,5.8,5.8,44,0.00,,,0.00,WUHU216HW,2013-03-22 14:30:00,
2013-03-22 10:35:00,34.6,14.8,29.90,NNW,338,4.3,7.4,44,0.00,,,0.00,WUHU216HW,2013-03-22 14:35:00,
2013-03-22 10:40:00,35.1,15.3,29.90,NNE,23,2.9,7.4,44,0.00,,,0.00,WUHU216HW,2013-03-22 14:40:00,
2013-03-22 10:45:00,34.9,15.1,29.90,WNW,293,3.4,6.9,44,0.00,,,0.00,WUHU216HW,2013-03-22 14:45:00,
2013-03-22 10:50:00,34.9,15.1,29.89,WNW,293,1.1,6.9,44,0.00,,,0.00,WUHU216HW,2013-03-22 14:50:00,
2013-03-22 10:55:00,35.8,15.4,29.89,NW,315,2.5,4.7,43,0.00,,,0.00,WUHU216HW,2013-03-22 14:55:00,
2013-03-22 11:00:00,35.8,14.9,29.89,WNW,293,4.7,5.4,42,0.00,,,0.00,WUHU216HW,2013-03-22 15:00:00,
2013-03-22 11:05:00,36.4,16.4,29.89,WNW,293,2.0,5.4,44,0.00,,,0.00,WUHU216HW,2013-03-22 15:05:00,
2013-03-22 11:10:00,37.3,16.2,29.89,NW,315,4.0,5.1,42,0.00,,,0.00,WUHU216HW,2013-03-22 15:10:00,
2013-03-22 11:15:00,37.4,15.9,29.89,WSW,248,5.4,5.4,41,0.00,,,0.00,WUHU216HW,2013-03-22 15:15:00,
2013-03-22 11:20:00,37.6,16.0,29.89,NW,315,3.4,5.8,41,0.00,,,0.00,WUHU216HW,2013-03-22 15:20:00,
2013-03-22 11:25:00,38.0,15.8,29.89,WNW,293,4.5,5.8,40,0.00,,,0.00,WUHU216HW,2013-03-22 15:25:00,
2013-03-22 11:30:00,37.8,15.7,29.89,NW,315,5.4,10.7,40,0.00,,,0.00,WUHU216HW,2013-03-22 15:30:00,
2013-03-22 11:35:00,38.2,16.5,29.89,NW,315,5.4,10.7,41,0.00,,,0.00,WUHU216HW,2013-03-22 15:35:00,
2013-03-22 11:40:00,38.0,15.8,29.89,WNW,293,3.1,6.9,40,0.00,,,0.00,WUHU216HW,2013-03-22 15:40:00,
2013-03-22 11:45:00,38.3,16.1,29.89,SW,225,4.7,6.9,40,0.00,,,0.00,WUHU216HW,2013-03-22 15:45:00,
2013-03-22 11:46:00,38.5,16.3,29.89,NW,315,3.8,3.8,40,0.00,,,0.00,WUHU216HW,2013-03-22 15:46:00,
2013-03-22 11:50:00,38.5,16.3,29.89,NW,315,3.8,4.7,40,0.00,,,0.00,WUHU216HW,2013-03-22 15:50:00,
2013-03-22 11:55:00,38.5,16.3,29.89,NW,315,3.8,3.8,40,0.00,,,0.00,WUHU216HW,2013-03-22 15:55:00,
2013-03-22 12:00:00,40.0,16.9,29.89,NNE,23,2.5,2.5,39,0.00,,,0.00,WUHU216HW,2013-03-22 16:00:00,
2013-03-22 12:05:00,40.3,17.9,29.88,WNW,293,2.5,6.3,40,0.00,,,0.00,WUHU216HW,2013-03-22 16:05:00,
2013-03-22 12:10:00,40.0,16.3,29.89,NW,315,6.9,6.9,38,0.00,,,0.00,WUHU216HW,2013-03-22 16:10:00,
2013-03-22 12:15:00,40.1,16.5,29.88,WNW,293,6.9,7.6,38,0.00,,,0.00,WUHU216HW,2013-03-22 16:15:00,
2013-03-22 12:20:00,40.3,17.9,29.88,NNW,338,5.8,7.6,40,0.00,,,0.00,WUHU216HW,2013-03-22 16:20:00,
2013-03-22 12:25:00,40.7,16.9,29.88,NW,315,7.6,7.6,38,0.00,,,0.00,WUHU216HW,2013-03-22 16:25:00,
2013-03-22 12:30:00,40.7,16.9,29.88,NW,315,4.5,7.6,38,0.00,,,0.00,WUHU216HW,2013-03-22 16:30:00,
2013-03-22 12:35:00,40.3,16.6,29.88,NW,315,4.5,6.9,38,0.00,,,0.00,WUHU216HW,2013-03-22 16:35:00,
2013-03-22 12:40:00,41.0,16.6,29.87,WNW,293,5.1,9.8,37,0.00,,,0.00,WUHU216HW,2013-03-22 16:40:00,
2013-03-22 12:45:00,40.9,16.5,29.87,NW,315,6.9,9.8,37,0.00,,,0.00,WUHU216HW,2013-03-22 16:45:00,
2013-03-22 12:50:00,41.0,17.3,29.87,NNW,338,2.9,7.4,38,0.00,,,0.00,WUHU216HW,2013-03-22 16:50:00,
2013-03-22 12:55:00,41.2,16.7,29.88,North,0,4.0,6.3,37,0.00,,,0.00,WUHU216HW,2013-03-22 16:55:00,
2013-03-22 13:00:00,41.6,17.7,29.88,WNW,293,4.3,6.3,38,0.00,,,0.00,WUHU216HW,2013-03-22 17:00:00,
2013-03-22 13:05:00,42.3,17.0,29.88,West,270,7.2,7.2,36,0.00,,,0.00,WUHU216HW,2013-03-22 17:05:00,
2013-03-22 13:10:00,42.3,17.0,29.88,NW,315,3.6,7.6,36,0.00,,,0.00,WUHU216HW,2013-03-22 17:10:00,
2013-03-22 13:15:00,42.7,17.4,29.88,NW,315,3.6,7.6,36,0.00,,,0.00,WUHU216HW,2013-03-22 17:15:00,
2013-03-22 13:20:00,42.5,17.2,29.88,NNW,338,4.9,6.5,36,0.00,,,0.00,WUHU216HW,2013-03-22 17:20:00,
2013-03-22 13:25:00,42.8,18.2,29.88,West,270,2.7,6.5,37,0.00,,,0.00,WUHU216HW,2013-03-22 17:25:00,
2013-03-22 13:30:00,43.4,18.0,29.87,NW,315,7.6,7.6,36,0.00,,,0.00,WUHU216HW,2013-03-22 17:30:00,
2013-03-22 13:35:00,43.4,18.0,29.87,West,270,3.8,7.6,36,0.00,,,0.00,WUHU216HW,2013-03-22 17:35:00,
2013-03-22 13:40:00,43.2,17.2,29.87,West,270,2.2,7.2,35,0.00,,,0.00,WUHU216HW,2013-03-22 17:40:00,
2013-03-22 13:45:00,43.4,18.0,29.87,NW,315,4.3,7.2,36,0.00,,,0.00,WUHU216HW,2013-03-22 17:45:00,
2013-03-22 13:50:00,43.6,17.5,29.86,WNW,293,4.9,6.3,35,0.00,,,0.00,WUHU216HW,2013-03-22 17:50:00,
2013-03-22 13:55:00,44.1,17.3,29.86,NW,315,6.5,6.5,34,0.00,,,0.00,WUHU216HW,2013-03-22 17:55:00,
2013-03-22 14:00:00,43.7,19.0,29.86,WNW,293,5.8,13.4,37,0.00,,,0.00,WUHU216HW,2013-03-22 18:00:00,
2013-03-22 14:05:00,44.1,17.3,29.86,NNW,338,6.3,13.4,34,0.00,,,0.00,WUHU216HW,2013-03-22 18:05:00,
2013-03-22 14:10:00,43.9,18.5,29.86,NNW,338,5.8,6.3,36,0.00,,,0.00,WUHU216HW,2013-03-22 18:10:00,
2013-03-22 14:15:00,44.5,19.0,29.86,NNW,338,1.1,5.8,36,0.00,,,0.00,WUHU216HW,2013-03-22 18:15:00,
2013-03-22 14:20:00,45.5,19.3,29.85,NW,315,2.2,4.5,35,0.00,,,0.00,WUHU216HW,2013-03-22 18:20:00,
2013-03-22 14:25:00,46.3,20.6,29.85,NNE,23,6.9,7.6,36,0.00,,,0.00,WUHU216HW,2013-03-22 18:25:00,
2013-03-22 14:30:00,47.5,19.7,29.85,NW,315,4.9,7.6,33,0.00,,,0.00,WUHU216HW,2013-03-22 18:30:00,
2013-03-22 14:35:00,46.6,19.5,29.85,West,270,5.4,5.8,34,0.00,,,0.00,WUHU216HW,2013-03-22 18:35:00,
2013-03-22 14:40:00,45.7,18.7,29.85,NNW,338,3.6,5.4,34,0.00,,,0.00,WUHU216HW,2013-03-22 18:40:00,
2013-03-22 14:45:00,46.8,19.1,29.85,WNW,293,5.1,5.1,33,0.00,,,0.00,WUHU216HW,2013-03-22 18:45:00,
2013-03-22 14:50:00,45.7,18.1,29.84,NNW,338,2.5,5.1,33,0.00,,,0.00,WUHU216HW,2013-03-22 18:50:00,
2013-03-22 14:55:00,45.9,18.3,29.84,WNW,293,2.2,4.7,33,0.00,,,0.00,WUHU216HW,2013-03-22 18:55:00,
2013-03-22 15:00:00,46.6,18.9,29.85,NW,315,1.8,4.5,33,0.00,,,0.00,WUHU216HW,2013-03-22 19:00:00,
2013-03-22 15:05:00,46.6,19.5,29.84,WNW,293,3.4,4.7,34,0.00,,,0.00,WUHU216HW,2013-03-22 19:05:00,
2013-03-22 15:10:00,46.8,19.1,29.84,WNW,293,0.9,4.7,33,0.00,,,0.00,WUHU216HW,2013-03-22 19:10:00,
2013-03-22 15:15:00,47.2,19.4,29.84,ESE,113,2.9,6.7,33,0.00,,,0.00,WUHU216HW,2013-03-22 19:15:00,
2013-03-22 15:20:00,47.3,19.5,29.84,NW,315,2.7,6.9,33,0.00,,,0.00,WUHU216HW,2013-03-22 19:20:00,
2013-03-22 15:25:00,47.0,19.3,29.84,WNW,293,4.5,6.9,33,0.00,,,0.00,WUHU216HW,2013-03-22 19:25:00,
2013-03-22 15:30:00,46.6,18.9,29.84,WNW,293,3.6,5.6,33,0.00,,,0.00,WUHU216HW,2013-03-22 19:30:00,
2013-03-22 15:35:00,46.6,18.9,29.84,WNW,293,3.6,5.6,33,0.00,,,0.00,WUHU216HW,2013-03-22 19:35:00,
2013-03-22 15:57:00,48.2,20.3,29.84,North,0,5.8,5.8,33,0.00,,,0.00,WUHU216HW,2013-03-22 19:57:00,
2013-03-22 16:02:00,48.4,20.5,29.84,NNW,338,3.1,5.8,33,0.00,,,0.00,WUHU216HW,2013-03-22 20:02:00,
2013-03-22 16:07:00,48.1,19.5,29.84,NW,315,6.9,9.4,32,0.00,,,0.00,WUHU216HW,2013-03-22 20:07:00,
2013-03-22 16:12:00,47.3,21.5,29.84,North,0,7.2,9.4,36,0.00,,,0.00,WUHU216HW,2013-03-22 20:12:00,
2013-03-22 16:17:00,47.9,20.7,29.84,NNE,23,6.9,7.6,34,0.00,,,0.00,WUHU216HW,2013-03-22 20:17:00,
2013-03-22 16:22:00,47.7,20.5,29.84,North,0,3.4,8.7,34,0.00,,,0.00,WUHU216HW,2013-03-22 20:22:00,
2013-03-22 16:27:00,47.2,19.4,29.84,WNW,293,4.9,8.7,33,0.00,,,0.00,WUHU216HW,2013-03-22 20:27:00,
2013-03-22 16:32:00,47.2,19.4,29.84,NNW,338,8.3,8.3,33,0.00,,,0.00,WUHU216HW,2013-03-22 20:32:00,
2013-03-22 16:37:00,46.6,18.9,29.84,North,0,6.5,8.3,33,0.00,,,0.00,WUHU216HW,2013-03-22 20:37:00,
2013-03-22 16:42:00,46.8,20.4,29.84,NNE,23,5.6,8.9,35,0.00,,,0.00,WUHU216HW,2013-03-22 20:42:00,
2013-03-22 16:47:00,46.6,18.9,29.84,NNW,338,6.3,8.9,33,0.00,,,0.00,WUHU216HW,2013-03-22 20:47:00,
2013-03-22 16:52:00,46.4,18.7,29.84,North,0,6.3,8.5,33,0.00,,,0.00,WUHU216HW,2013-03-22 20:52:00,
2013-03-22 16:57:00,45.7,19.5,29.84,North,0,6.0,6.3,35,0.00,,,0.00,WUHU216HW,2013-03-22 20:57:00,
2013-03-22 17:02:00,45.4,19.8,29.84,North,0,4.5,7.4,36,0.00,,,0.00,WUHU216HW,2013-03-22 21:02:00,
2013-03-22 17:07:00,45.4,19.8,29.84,NNE,23,4.7,7.4,36,0.00,,,0.00,WUHU216HW,2013-03-22 21:07:00,
2013-03-22 17:12:00,45.4,19.1,29.84,NNE,23,3.4,5.8,35,0.00,,,0.00,WUHU216HW,2013-03-22 21:12:00,
2013-03-22 17:17:00,45.2,19.6,29.85,North,0,7.6,7.6,36,0.00,,,0.00,WUHU216HW,2013-03-22 21:17:00,
2013-03-22 17:22:00,45.7,20.1,29.85,North,0,6.9,7.6,36,0.00,,,0.00,WUHU216HW,2013-03-22 21:22:00,
2013-03-22 17:27:00,45.7,20.1,29.85,North,0,4.0,6.9,36,0.00,,,0.00,WUHU216HW,2013-03-22 21:27:00,
2013-03-22 17:32:00,46.3,18.5,29.85,NW,315,2.7,6.9,33,0.00,,,0.00,WUHU216HW,2013-03-22 21:32:00,
2013-03-22 17:37:00,46.4,20.7,29.85,NNW,338,3.4,4.9,36,0.00,,,0.00,WUHU216HW,2013-03-22 21:37:00,
2013-03-22 17:42:00,46.1,18.5,29.85,NNW,338,6.0,6.0,33,0.00,,,0.00,WUHU216HW,2013-03-22 21:42:00,
2013-03-22 17:47:00,45.7,19.5,29.85,NW,315,3.6,7.4,35,0.00,,,0.00,WUHU216HW,2013-03-22 21:47:00,
2013-03-22 17:52:00,45.9,19.6,29.85,NNW,338,2.5,7.4,35,0.00,,,0.00,WUHU216HW,2013-03-22 21:52:00,
2013-03-22 17:58:00,46.1,19.7,29.86,NW,315,1.6,5.1,35,0.00,,,0.00,WUHU216HW,2013-03-22 21:58:00,
2013-03-22 18:03:00,45.7,19.5,29.86,NW,315,3.8,5.8,35,0.00,,,0.00,WUHU216HW,2013-03-22 22:03:00,
2013-03-22 18:08:00,45.4,18.5,29.86,NNW,338,2.9,5.8,34,0.00,,,0.00,WUHU216HW,2013-03-22 22:08:00,
2013-03-22 18:13:00,45.2,18.3,29.86,WNW,293,5.1,5.1,34,0.00,,,0.00,WUHU216HW,2013-03-22 22:13:00,
2013-03-22 18:18:00,45.4,19.8,29.86,North,0,6.0,6.0,36,0.00,,,0.00,WUHU216HW,2013-03-22 22:18:00,
2013-03-22 18:23:00,45.4,19.8,29.86,North,0,5.6,7.6,36,0.00,,,0.00,WUHU216HW,2013-03-22 22:23:00,
2013-03-22 18:28:00,45.2,19.6,29.87,NW,315,5.4,7.6,36,0.00,,,0.00,WUHU216HW,2013-03-22 22:28:00,
2013-03-22 18:33:00,45.0,19.4,29.87,NNE,23,3.8,5.4,36,0.00,,,0.00,WUHU216HW,2013-03-22 22:33:00,
2013-03-22 18:38:00,45.4,19.8,29.87,North,0,2.2,4.0,36,0.00,,,0.00,WUHU216HW,2013-03-22 22:38:00,
2013-03-22 18:43:00,45.4,19.8,29.87,North,0,2.7,7.2,36,0.00,,,0.00,WUHU216HW,2013-03-22 22:43:00,
2013-03-22 18:48:00,44.6,19.1,29.87,NW,315,4.7,7.2,36,0.00,,,0.00,WUHU216HW,2013-03-22 22:48:00,
2013-03-22 18:53:00,44.1,18.6,29.87,NNW,338,6.9,6.9,36,0.00,,,0.00,WUHU216HW,2013-03-22 22:53:00,
2013-03-22 18:58:00,43.7,19.0,29.87,NNW,338,4.0,6.9,37,0.00,,,0.00,WUHU216HW,2013-03-22 22:58:00,
2013-03-22 19:03:00,43.0,19.0,29.88,NW,315,2.7,6.9,38,0.00,,,0.00,WUHU216HW,2013-03-22 23:03:00,
2013-03-22 19:08:00,42.8,19.5,29.88,NW,315,2.2,5.8,39,0.00,,,0.00,WUHU216HW,2013-03-22 23:08:00,
2013-03-22 19:13:00,42.5,19.2,29.88,NW,315,2.7,3.6,39,0.00,,,0.00,WUHU216HW,2013-03-22 23:13:00,
2013-03-22 19:18:00,42.1,18.8,29.88,NW,315,1.8,3.4,39,0.00,,,0.00,WUHU216HW,2013-03-22 23:18:00,
2013-03-22 19:23:00,41.8,19.2,29.89,NNW,338,0.9,4.0,40,0.00,,,0.00,WUHU216HW,2013-03-22 23:23:00,
2013-03-22 19:28:00,41.4,18.9,29.89,NNW,338,2.7,4.0,40,0.00,,,0.00,WUHU216HW,2013-03-22 23:28:00,
2013-03-22 19:33:00,41.0,18.5,29.89,NNW,338,1.6,3.4,40,0.00,,,0.00,WUHU216HW,2013-03-22 23:33:00,
2013-03-22 19:38:00,40.7,18.7,29.89,WNW,293,1.3,5.4,41,0.00,,,0.00,WUHU216HW,2013-03-22 23:38:00,
2013-03-22 19:43:00,40.7,18.7,29.89,NNW,338,0.7,5.4,41,0.00,,,0.00,WUHU216HW,2013-03-22 23:43:00,
2013-03-22 19:48:00,40.5,18.5,29.89,NW,315,1.3,2.5,41,0.00,,,0.00,WUHU216HW,2013-03-22 23:48:00,
2013-03-22 19:53:00,40.1,18.8,29.90,NW,315,1.1,2.0,42,0.00,,,0.00,WUHU216HW,2013-03-22 23:53:00,
2013-03-22 19:58:00,40.0,18.6,29.90,NNW,338,0.2,2.0,42,0.00,,,0.00,WUHU216HW,2013-03-22 23:58:00,
2013-03-22 20:03:00,39.8,17.9,29.90,NNW,338,0.2,1.1,41,0.00,,,0.00,WUHU216HW,2013-03-23 00:03:00,
2013-03-22 20:08:00,39.6,18.8,29.90,NNW,338,1.6,1.8,43,0.00,,,0.00,WUHU216HW,2013-03-23 00:08:00,
2013-03-22 20:13:00,39.2,18.0,29.90,NNW,338,0.4,1.8,42,0.00,,,0.00,WUHU216HW,2013-03-23 00:13:00,
2013-03-22 20:18:00,39.1,18.4,29.90,NNW,338,0.4,1.8,43,0.00,,,0.00,WUHU216HW,2013-03-23 00:18:00,
2013-03-22 20:23:00,38.9,18.2,29.90,North,0,0.4,2.7,43,0.00,,,0.00,WUHU216HW,2013-03-23 00:23:00,
2013-03-22 20:28:00,38.9,18.2,29.91,NNW,338,0.4,2.7,43,0.00,,,0.00,WUHU216HW,2013-03-23 00:28:00,
2013-03-22 20:33:00,38.7,18.0,29.91,NNW,338,1.1,2.2,43,0.00,,,0.00,WUHU216HW,2013-03-23 00:33:00,
2013-03-22 20:38:00,38.5,17.8,29.91,NNW,338,1.1,1.1,43,0.00,,,0.00,WUHU216HW,2013-03-23 00:38:00,
2013-03-22 20:43:00,38.5,17.8,29.91,NNW,338,0.4,1.1,43,0.00,,,0.00,WUHU216HW,2013-03-23 00:43:00,
2013-03-22 20:48:00,38.2,17.6,29.91,North,0,0.7,0.7,43,0.00,,,0.00,WUHU216HW,2013-03-23 00:48:00,
2013-03-22 20:53:00,38.0,17.9,29.91,WNW,293,0.0,0.7,44,0.00,,,0.00,WUHU216HW,2013-03-23 00:53:00,
2013-03-22 20:58:00,37.8,17.2,29.92,North,0,0.0,0.4,43,0.00,,,0.00,WUHU216HW,2013-03-23 00:58:00,
2013-03-22 21:03:00,37.6,17.6,29.92,North,0,0.0,0.7,44,0.00,,,0.00,WUHU216HW,2013-03-23 01:03:00,
2013-03-22 21:08:00,37.4,17.4,29.92,NNW,338,0.0,0.9,44,0.00,,,0.00,WUHU216HW,2013-03-23 01:08:00,
2013-03-22 21:13:00,37.3,17.2,29.92,North,0,0.0,0.9,44,0.00,,,0.00,WUHU216HW,2013-03-23 01:13:00,
2013-03-22 21:18:00,37.1,17.1,29.92,NNW,338,0.9,0.9,44,0.00,,,0.00,WUHU216HW,2013-03-23 01:18:00,
2013-03-22 21:23:00,36.9,16.9,29.92,NNW,338,0.0,1.8,44,0.00,,,0.00,WUHU216HW,2013-03-23 01:23:00,
2013-03-22 21:28:00,36.7,16.7,29.92,NNW,338,0.0,1.8,44,0.00,,,0.00,WUHU216HW,2013-03-23 01:28:00,
2013-03-22 21:33:00,36.5,16.6,29.92,NW,315,0.2,0.2,44,0.00,,,0.00,WUHU216HW,2013-03-23 01:33:00,
2013-03-22 21:38:00,36.4,16.9,29.92,NE,45,0.0,0.4,45,0.00,,,0.00,WUHU216HW,2013-03-23 01:38:00,
2013-03-22 21:43:00,36.0,16.7,29.93,ENE,68,0.2,0.2,45,0.00,,,0.00,WUHU216HW,2013-03-23 01:43:00,
2013-03-22 21:48:00,35.6,15.8,29.93,ENE,68,0.0,0.2,44,0.00,,,0.00,WUHU216HW,2013-03-23 01:48:00,
2013-03-22 21:53:00,35.3,16.5,29.93,ESE,113,0.0,0.2,46,0.00,,,0.00,WUHU216HW,2013-03-23 01:53:00,
2013-03-22 21:58:00,34.9,16.1,29.93,ESE,113,0.4,0.9,46,0.00,,,0.00,WUHU216HW,2013-03-23 01:58:00,
2013-03-22 22:03:00,34.6,15.8,29.93,ESE,113,0.4,0.9,46,0.00,,,0.00,WUHU216HW,2013-03-23 02:03:00,
2013-03-22 22:08:00,34.2,15.4,29.93,ESE,113,1.1,1.1,46,0.00,,,0.00,WUHU216HW,2013-03-23 02:08:00,
2013-03-22 22:13:00,33.8,15.6,29.93,SE,135,0.9,1.1,47,0.00,,,0.00,WUHU216HW,2013-03-23 02:13:00,
2013-03-22 22:14:00,33.7,15.9,29.93,SE,135,0.2,0.2,48,0.00,,,0.00,WUHU216HW,2013-03-23 02:14:00,
2013-03-22 22:18:00,33.7,15.9,29.93,SE,135,0.2,1.1,48,0.00,,,0.00,WUHU216HW,2013-03-23 02:18:00,
2013-03-22 22:23:00,33.7,15.9,29.93,SE,135,0.2,0.2,48,0.00,,,0.00,WUHU216HW,2013-03-23 02:23:00,
2013-03-22 22:44:00,31.9,15.8,29.94,NNE,23,0.0,0.0,51,0.00,,,0.00,WUHU216HW,2013-03-23 02:44:00,
2013-03-22 22:49:00,31.7,15.6,29.94,NNW,338,0.0,0.2,51,0.00,,,0.00,WUHU216HW,2013-03-23 02:49:00,
2013-03-22 22:54:00,31.7,15.1,29.94,North,0,0.2,0.2,50,0.00,,,0.00,WUHU216HW,2013-03-23 02:54:00,
2013-03-22 22:59:00,31.3,15.3,29.94,NE,45,0.0,0.4,51,0.00,,,0.00,WUHU216HW,2013-03-23 02:59:00,
2013-03-22 23:04:00,31.3,15.3,29.94,ENE,68,0.0,0.4,51,0.00,,,0.00,WUHU216HW,2013-03-23 03:04:00,
2013-03-22 23:09:00,31.1,15.5,29.95,ENE,68,0.0,0.2,52,0.00,,,0.00,WUHU216HW,2013-03-23 03:09:00,
2013-03-22 23:14:00,31.0,15.4,29.95,NNE,23,0.2,1.3,52,0.00,,,0.00,WUHU216HW,2013-03-23 03:14:00,
2013-03-22 23:19:00,30.8,16.0,29.95,NNW,338,0.0,1.3,54,0.00,,,0.00,WUHU216HW,2013-03-23 03:19:00,
2013-03-22 23:24:00,30.6,15.0,29.95,NNE,23,0.0,0.0,52,0.00,,,0.00,WUHU216HW,2013-03-23 03:24:00,
2013-03-22 23:29:00,30.4,14.9,29.95,North,0,0.0,0.2,52,0.00,,,0.00,WUHU216HW,2013-03-23 03:29:00,
2013-03-22 23:34:00,30.2,15.1,29.96,NNE,23,0.0,0.2,53,0.00,,,0.00,WUHU216HW,2013-03-23 03:34:00,
2013-03-22 23:39:00,30.1,15.4,29.95,North,0,0.7,0.7,54,0.00,,,0.00,WUHU216HW,2013-03-23 03:39:00,
2013-03-22 23:44:00,29.7,15.5,29.96,NNE,23,0.9,1.1,55,0.00,,,0.00,WUHU216HW,2013-03-23 03:44:00,
2013-03-22 23:49:00,29.5,16.9,29.96,North,0,1.1,1.6,59,0.00,,,0.00,WUHU216HW,2013-03-23 03:49:00,
2013-03-22 23:54:00,29.3,16.7,29.96,North,0,1.1,1.6,59,0.00,,,0.00,WUHU216HW,2013-03-23 03:54:00,
2013-03-22 23:59:00,29.3,16.7,29.96,North,0,1.3,2.5,59,0.00,,,0.00,WUHU216HW,2013-03-23 03:59:00,